Tracking 33188 objects as of 10-Feb-2026
HD Live streaming from Space Station
objects crossing your sky now

DELTA 1 DEB

Track DELTA 1 DEB now!
10-day predictions


NORAD ID: 7050
Int'l Code: 1973-086AS
Perigee: 1,401.7 km
Apogee: 1,473.7 km
Inclination: 101.7 °
Period: 114.5 minutes
Semi major axis: 7808 km
RCS: 0.1002 m2 (medium)
Launch date: November 6, 1973
Source: United States (US)
Launch site: AIR FORCE WESTERN TEST RANGE (AFWTR)

Note: This is SATELLITE DEBRIS
Your satellite tracking list
Your tracking list is empty




NASA's NSSDC Master Catalog

Two Line Element Set (TLE):
1 07050U 73086AS  26040.41121607  .00000336  00000-0  22415-2 0  9998
2 07050 101.6600  21.6608 0046109  89.9253  64.3899 12.58147936382353
Source of the keplerian elements: AFSPC